Weather in Kamenec

Belarus     52°24′06″N   23°49′18″E
temp.,
°C
wind,
m/s
gust,
m/s
humid.,
%
clouds,
%
prec.,
mm/h
press.,
hPa
HPBL,
m
28 september, tue
tue2800:00+8ese511830 0.0 1025371
03:00+7ese39860 0.0 1026260
06:00+6e38881 0.0 1026179
09:00+7ese38790 0.0 1026264
12:00+12ese57598 0.0 10271086
15:00+14ese555226 0.0 10271454
18:00+13ese576016 0.0 1027645
21:00+10e377578 0.0 1028180
29 september, wed
wed2900:00+10ese486959 0.0 1029326
03:00+7e388197 0.0 1029174
06:00+7e388592 0.0 1029177
09:00+9ese4117638 0.0 1029329
12:00+13se695759 0.0 10291302
15:00+15se794842 0.0 10271678
18:00+13ese610585 0.0 1027901
21:00+11se614664 0.0 1027558
30 september, thu
thu3000:00+9se616722 0.0 1027527
03:00+8se615765 0.0 1027447
06:00+7se614775 0.0 1027428
09:00+8se6137499 0.0 1027430
12:00+11sse6961100 0.0 1027582
15:00+12sse4763100 0.0 1027703
18:00+11s2573100 0.1 1027239
21:00+10s1189100 0.8 102845
1 october, fri
fri100:00+10wnw2397100 1.4 1029129
03:00+10wnw1197100 2.1 102930
06:00+10nnw1193100 0.1 103015
09:00+11ese119137 0.1 1030112
12:00+11ese2493100 0.1 1029264
15:00+13se3575100 0.1 1028613
18:00+12se36685 0.0 1027312
21:00+9ese38825 0.0 1027153
2 october, sat
sat200:00+9se4107832 0.0 1026219
03:00+8sse4117458 0.0 1025228
06:00+7se497094 0.0 1024182
09:00+8se410657 0.0 1023248
12:00+14sse585342 0.0 1022483
15:00+17sse67495 0.0 1021897
18:00+16sse510589 0.0 1020445
21:00+12sse5136116 0.0 1021301